SCP
0 0 0 0 0 0 0 0 0 0 0 0 0 0 0 0 0 0 0 0 0 0 0 -0 -0 0 0 0 0 0 0 0 0 0 0 0 0 0 0 0 0 0 0 0
0 0 0 0 0 0 0 0 0 0 0 0 0 -0 0 0 0 0 0 0 -0 0 0 0 0 0 0 0 0 0 0 0 0 0 0 0 0 0 0 0 0 0 0 0
0 0 0 0 0 0 0 0 0 0 0 0 0 -0 0 0 0 0 0 0 0 -0 0 0 0 0 0 0 0 0 0 0 0 0 0 0 0 0 0 0 0 0 0 0
0 0 0 0 0 0 0 0 0 0 0 0 0 0 0 0 0 0 0 0 0 0 0 0 0 0 0 0 0 0 0 0 0 0 0 0 0 0 0 0 0 0 0 0
0 0 0 0 0 0 0 0 0 0 0 0 0 0 0 0 0 0 0 0 0 0 0 0 0 0 0 0 0 0 0 0 0 0 0 0 0 0 0 0 0 0 0 0
0 0 0 0 0 0 0 0 0 0 0 0 0 0 -0 0 0 0 0 0 0 0 0 0 0 0 0 0 0 0 0 0 0 0 0 0 0 0 0 0 0 0 0 0
0 0 0 0 0 0 0 0 0 0 0 0 0 0 0 0 0 0 0 0 0 0 0 0 0 0 0 0 0 0 0 0 0 0 0 0 0 0 0 0 0 0 0 0
0 0 0 0 0 0 0 0 0 0 0 0 0 -0 -0 -0 -0 0 0 0 0 0 0 0 0 0 0 0 0 0 0 0 0 0 0 0 0 0 0 0 0 0 0 0
0 0 0 0 0 0 0 0 0 0 0 0 0 0 0 0 0 0 0 0 0 0 0 0 0 0 0 0 0 0 0 0 0 0 0 0 0 0 0 0 0 0 0 0
0 0 0 0 0 0 0 0 0 0 0 0 0 0 0 0 0 0 0 0 0 0 0 0 0 0 0 0 0 0 0 0 0 0 0 0 0 0 0 0 0 0 0 0
0 0 0 0 0 0 0 0 0 0 0 0 0 0 0 0 0 0 0 0 0 0 0 0 0 0 0 0 0 0 0 0 0 0 0 0 0 0 0 0 0 0 0 0
0 0 0 0 0 0 0 0 0 0 0 0 0 0 0 0 0 0 0 0 0 0 0 0 0 0 0 0 0 0 0 0 0 0 0 0 0 0 0 0 0 0 0 0
0 0 0 0 0 0 0 0 0 0 0 0 0 0 0 0 0 0 0 0 0 0 0 0 0 0 0 0 0 0 0 0 0 0 0 0 0 0 0 0 0 0 0 0
0 0 0 0 0 0 0 0 0 0 0 0 0 0 0 0 0 0 0 0 0 0 0 0 0 0 0 0 0 0 0 0 0 0 0 0 0 0 0 0 0 0 0 0
0 0 0 0 0 0 0 0 0 0 0 0 0 0 0 0 0 0 0 0 0 0 0 0 0 0 0 0 0 0 0 0 0 0 0 0 0 0 0 0 0 0 0 0
0 0 0 0 0 0 0 0 0 0 0 0 0 0 0 0 0 0 0 0 0 0 0 0 0 0 0 0 0 0 0 0 0 0 0 0 0 0 0 0 0 0 0 0
0 0 0 0 0 0 0 0 0 0 0 0 0 0 0 0 0 0 0 0 0 0 0 0 0 0 0 0 0 0 0 0 0 0 0 0 0 0 0 0 0 0 0 0
0 0 0 0 0 0 0 0 0 0 0 0 0 0 0 0 0 0 0 0 0 0 0 0 0 0 0 0 0 0 0 0 0 0 0 0 0 0 0 0 0 0 0 0
0 0 0 0 0 0 0 0 0 0 0 0 0 0 0 0 0 0 0 0 0 0 0 0 0 0 0 0 0 0 0 0 0 0 0 0 0 0 0 0 0 0 0 0
0 0 0 0 0 0 0 0 0 0 0 0 0 0 0 0 0 0 0 0 0 0 0 0 0 0 0 0 0 0 0 0 0 0 0 0 0 0 0 0 0 0 0 0
0 0 0 0 0 0 0 0 0 0 0 0 0 0 0 0 0 0 0 0 0 0 0 0 0 0 0 0 0 0 0 0 0 0 0 0 0 0 0 0 0 0 0 0
0 0 0 0 0 0 0 0 0 0 0 0 0 0 0 0 0 0 0 0 0 0 0 0 0 0 0 0 0 0 0 0 0 0 0 0 0 0 0 0 0 0 0 0
0 0 0 0 0 0 0 0 0 0 0 0 0 0 0 0 0 0 0 0 0 0 0 0 0 0 0 0 0 0 0 0 0 0 0 0 0 0 0 0 0 0 0 0
0 0 0 0 0 0 0 0 0 0 0 0 0 0 0 0 0 0 0 0 0 0 0 0 0 0 0 0 0 0 0 0 0 0 0 0 0 0 0 0 0 0 0 0
0 0 0 0 0 0 0 0 0 0 0 0 0 0 0 0 0 0 0 0 0 0 0 0 0 0 0 0 0 0 0 0 0 0 0 0 0 0 0 0 0 0 0 0
0 0 0 0 0 0 0 0 0 0 0 0 0 0 0 0 0 0 0 0 0 0 0 0 0 0 0 0 0 0 0 0 0 0 0 0 0 0 0 0 0 0 0 0
Wind_Speed_500mb
33 13 38 61 45 17 18 13 17 17 14 14 21 13 22 43 38 31 40 45 39 64 57 49 52 55 61 61 66 64 62 65 70 72 70 66 64 58 55 53 49 49 47 44
15 40 42 32 42 35 20 22 19 4 7 9 10 18 18 30 44 45 49 45 53 40 69 67 58 63 68 68 66 70 70 66 70 73 73 72 66 62 57 53 52 52 51 48
41 41 38 36 37 40 20 31 17 19 7 4 1 14 13 20 48 55 64 67 67 56 45 76 68 61 67 75 75 76 76 71 69 71 71 75 72 67 64 63 61 59 56 54
28 18 42 35 42 38 33 14 12 18 9 7 9 10 11 11 21 32 57 73 73 69 65 62 72 68 66 65 71 75 75 74 72 69 73 78 80 77 74 69 65 63 60 58
32 46 54 52 58 46 15 34 2 10 8 8 6 1 13 10 12 16 45 77 77 72 69 66 66 71 67 64 66 69 76 77 75 73 75 77 80 77 74 71 66 63 61 59
10 42 36 17 29 42 25 32 14 10 6 6 16 11 10 9 15 11 18 57 77 77 71 66 74 58 70 69 66 67 74 78 80 77 77 78 77 77 76 73 70 66 65 61
10 31 8 29 35 20 26 36 7 4 7 13 2 11 23 11 15 10 13 16 32 56 63 68 60 73 76 73 72 70 69 74 78 77 77 76 74 74 75 73 71 70 68 68
23 22 26 14 49 30 50 32 14 17 9 8 5 14 13 26 45 24 12 11 17 22 19 18 39 60 60 72 75 73 72 70 73 77 79 78 76 76 75 74 73 73 71 68
16 7 7 9 16 33 18 24 15 15 5 7 10 12 19 11 12 18 23 21 23 17 22 31 29 35 44 61 64 65 68 69 70 73 77 81 81 82 80 78 77 75 72 70
10 13 12 3 17 1 30 21 11 3 12 7 9 10 11 12 21 16 12 19 21 17 14 20 29 31 34 45 53 55 58 62 64 67 72 77 81 83 84 82 82 80 75 68
24 11 9 23 13 27 12 27 11 12 9 11 7 12 15 24 21 20 23 28 24 18 17 17 21 25 29 34 42 49 56 60 65 68 71 74 77 79 82 85 84 80 70 62
7 13 27 32 7 4 12 18 3 10 13 6 7 10 8 18 21 45 37 33 26 24 18 14 12 6 7 15 26 32 36 40 47 56 63 68 74 78 76 75 68 64 65 66
16 6 19 7 9 6 24 18 27 8 7 12 11 10 4 14 22 45 49 36 28 18 10 9 9 5 4 1 4 10 17 24 29 33 38 43 51 61 69 71 70 74 74 69
19 10 15 40 71 20 41 40 29 9 7 9 21 10 7 12 20 27 39 32 22 11 2 5 4 6 5 3 3 5 7 10 15 19 23 27 31 36 44 51 58 64 68 68
10 10 8 15 27 17 40 41 16 30 11 18 9 17 16 22 21 42 47 33 25 17 9 9 5 7 6 4 5 7 9 12 15 18 20 22 25 29 32 34 38 42 44 44
6 10 10 7 17 28 30 40 36 32 22 14 11 16 9 25 35 34 46 42 26 18 16 9 10 8 10 10 9 13 13 14 17 19 21 23 26 28 30 33 36 39 41 44
13 13 9 10 9 20 2 51 54 49 51 54 22 32 16 15 19 42 52 44 31 22 22 17 17 13 12 14 18 19 17 20 20 22 23 22 23 24 25 27 29 29 30 31
19 15 7 9 17 9 15 40 58 60 55 50 45 18 21 26 59 49 50 48 35 30 28 24 19 21 24 26 26 24 25 25 25 25 22 21 21 21 21 19 18 18 16 12
22 6 8 16 26 5 9 16 52 40 48 33 41 20 27 30 12 34 41 43 45 42 29 28 28 30 29 27 28 29 29 28 29 26 23 21 22 21 19 17 14 15 15 17
13 8 11 7 14 31 8 14 51 15 24 45 55 40 33 19 11 27 47 55 55 42 36 28 27 23 23 27 27 31 32 31 29 25 25 26 23 20 17 16 17 18 19 18
19 15 25 21 7 15 13 27 65 25 32 44 71 70 64 32 63 49 42 50 40 30 26 23 21 20 21 22 23 27 31 30 28 29 27 24 20 18 17 17 18 18 20 22
17 20 15 5 1 33 26 53 54 26 13 32 64 84 88 80 57 44 48 37 32 27 22 22 20 16 15 17 18 21 24 26 25 26 23 20 18 17 17 17 18 19 21 22
7 20 21 27 18 6 70 62 54 60 42 29 48 65 82 81 66 64 53 42 34 26 25 22 17 14 11 10 11 13 17 18 21 21 20 19 18 17 18 17 18 19 20 21
9 23 8 7 13 9 52 43 63 33 38 38 39 57 62 75 68 58 51 42 37 34 28 22 18 14 12 13 13 13 14 16 16 16 17 17 15 14 14 14 15 16 17 18
10 23 14 8 5 9 56 51 78 49 39 43 46 49 46 47 54 53 52 46 40 33 28 24 22 23 22 21 19 19 18 17 16 16 16 16 16 14 14 14 14 13 13 14
13 24 30 25 25 23 42 90 90 64 53 53 55 45 40 40 54 54 52 46 41 38 36 35 33 31 32 30 27 26 25 22 18 15 15 13 11 9 8 7 5 7 9 11
Wind_Direction_500mb
177 186 187 190 178 227 164 182 182 216 209 165 216 217 237 253 267 240 214 219 216 222 231 228 227 224 223 226 227 229 228 225 222 223 225 228 229 232 232 232 235 238 241 240
157 210 204 191 179 180 178 194 209 342 120 165 254 258 236 230 243 246 235 228 232 233 222 219 220 222 225 228 227 231 234 233 226 227 229 233 236 238 243 244 242 242 244 245
193 200 176 177 177 176 176 208 193 218 165 261 16 279 224 230 232 238 240 238 236 229 231 216 216 221 226 227 230 232 235 236 232 230 230 232 235 240 241 243 244 245 246 249
210 194 168 187 185 189 187 191 258 149 135 207 153 272 291 224 234 221 229 228 232 229 230 222 220 221 229 233 236 235 236 238 239 236 233 233 235 236 241 245 249 249 249 250
198 176 176 186 194 185 192 139 346 156 154 66 244 157 266 263 274 233 225 229 232 233 232 226 225 226 233 238 239 237 234 236 240 241 240 239 239 244 247 250 252 252 251 250
199 186 175 185 184 177 151 128 94 351 97 248 202 164 256 230 220 236 236 230 234 237 238 236 232 232 234 238 242 240 236 237 238 240 241 241 242 245 247 249 250 252 253 252
154 163 165 169 149 168 138 141 114 174 219 224 129 196 243 246 239 194 167 190 235 244 248 245 235 235 236 236 240 243 240 239 240 240 242 245 247 248 251 254 255 253 254 253
157 175 166 184 171 176 169 166 151 168 197 200 339 226 244 223 239 252 211 202 204 213 219 236 238 237 239 240 240 243 243 242 242 241 242 246 249 250 253 255 255 256 257 258
154 163 144 165 151 157 188 193 154 99 27 92 214 283 306 245 235 201 202 219 237 233 231 234 231 231 232 234 240 246 247 244 245 243 244 245 249 251 253 257 259 259 259 260
187 95 178 145 103 301 190 161 127 29 138 199 256 269 226 214 205 212 186 188 200 205 228 222 222 228 232 230 233 238 241 245 248 248 247 248 249 252 255 258 258 260 261 261
138 114 167 150 210 178 146 195 180 125 150 158 155 252 211 204 179 188 184 172 177 190 196 206 220 228 232 234 235 238 239 240 240 241 242 245 247 248 251 255 258 261 263 258
198 122 156 188 160 262 185 209 169 170 203 189 147 267 303 185 161 156 165 152 140 129 126 125 122 142 215 233 238 242 241 241 243 244 245 246 247 249 249 251 252 252 250 250
177 129 129 156 348 341 198 225 198 102 98 201 133 247 10 130 138 160 154 156 148 134 101 163 157 91 68 191 241 248 255 258 260 261 259 252 247 246 248 250 249 245 248 247
114 143 180 188 193 146 189 200 207 146 159 154 213 167 176 166 152 161 163 163 170 165 104 139 213 258 266 264 330 323 299 276 262 257 254 254 252 248 246 245 245 246 248 253
111 137 126 185 170 149 177 187 183 211 190 198 164 179 211 190 177 181 178 181 183 190 190 189 358 336 272 300 296 311 314 299 282 272 267 263 262 260 259 257 254 252 251 245
295 151 113 14 166 154 176 189 194 208 216 249 150 220 208 211 195 191 199 204 201 196 198 216 289 279 290 268 311 303 298 297 281 273 270 270 268 268 265 261 258 257 256 254
159 138 121 171 127 103 22 192 196 207 212 213 188 212 196 207 198 196 204 201 205 216 227 254 282 275 287 281 289 295 279 279 277 263 258 258 261 264 264 263 259 253 247 242
162 141 107 153 130 174 235 188 204 205 212 214 224 166 190 201 214 217 208 212 212 223 235 258 266 277 284 278 270 270 268 268 265 260 256 260 262 261 259 258 259 260 255 246
212 102 77 158 192 268 256 194 193 191 230 223 223 195 186 171 174 245 221 226 237 243 244 260 271 273 272 265 255 247 247 252 253 249 244 247 252 253 254 252 242 228 224 222
136 125 144 137 171 211 183 193 190 115 255 218 212 205 199 171 226 234 229 232 232 236 248 247 254 247 258 259 253 244 241 243 244 239 236 236 239 246 250 239 229 227 229 233
146 155 182 187 193 275 242 156 138 150 243 193 193 196 201 207 224 236 207 205 208 205 215 217 220 237 247 248 241 236 236 237 233 230 230 232 236 241 242 235 222 226 231 237
160 152 180 105 214 250 170 149 171 189 139 169 191 197 203 208 203 188 179 182 182 184 199 220 223 228 236 240 240 236 232 227 225 223 225 226 228 234 241 238 227 226 232 237
170 191 170 191 210 245 174 169 186 181 183 170 192 198 204 199 196 187 183 185 188 198 197 182 181 186 188 204 215 219 219 214 208 208 211 215 219 222 225 231 234 232 234 240
238 201 193 108 216 206 179 186 197 183 195 182 180 180 189 193 193 184 184 191 194 187 181 180 183 184 185 185 180 185 186 186 188 193 197 202 206 211 219 224 234 231 229 238
197 163 177 272 213 139 196 193 193 191 192 163 151 151 158 165 169 178 179 181 179 175 171 169 170 164 161 156 154 158 157 155 164 175 184 190 196 199 202 205 213 219 227 237
193 191 196 228 158 198 188 194 197 195 178 169 165 164 168 173 171 174 172 171 176 173 168 164 157 155 147 143 145 140 137 136 141 151 162 167 174 182 191 197 208 236 253 259
Wind_Speed_850mb
33 13 38 61 45 17 18 13 17 17 14 14 21 13 22 43 38 31 40 45 39 64 57 49 52 55 61 61 66 64 62 65 70 72 70 66 64 58 55 53 49 49 47 44
15 40 42 32 42 35 20 22 19 4 7 9 10 18 18 30 44 45 49 45 53 40 69 67 58 63 68 68 66 70 70 66 70 73 73 72 66 62 57 53 52 52 51 48
41 41 38 36 37 40 20 31 17 19 7 4 1 14 13 20 48 55 64 67 67 56 45 76 68 61 67 75 75 76 76 71 69 71 71 75 72 67 64 63 61 59 56 54
28 18 42 35 42 38 33 14 12 18 9 7 9 10 11 11 21 32 57 73 73 69 65 62 72 68 66 65 71 75 75 74 72 69 73 78 80 77 74 69 65 63 60 58
32 46 54 52 58 46 15 34 2 10 8 8 6 1 13 10 12 16 45 77 77 72 69 66 66 71 67 64 66 69 76 77 75 73 75 77 80 77 74 71 66 63 61 59
10 42 36 17 29 42 25 32 14 10 6 6 16 11 10 9 15 11 18 57 77 77 71 66 74 58 70 69 66 67 74 78 80 77 77 78 77 77 76 73 70 66 65 61
10 31 8 29 35 20 26 36 7 4 7 13 2 11 23 11 15 10 13 16 32 56 63 68 60 73 76 73 72 70 69 74 78 77 77 76 74 74 75 73 71 70 68 68
23 22 26 14 49 30 50 32 14 17 9 8 5 14 13 26 45 24 12 11 17 22 19 18 39 60 60 72 75 73 72 70 73 77 79 78 76 76 75 74 73 73 71 68
16 7 7 9 16 33 18 24 15 15 5 7 10 12 19 11 12 18 23 21 23 17 22 31 29 35 44 61 64 65 68 69 70 73 77 81 81 82 80 78 77 75 72 70
10 13 12 3 17 1 30 21 11 3 12 7 9 10 11 12 21 16 12 19 21 17 14 20 29 31 34 45 53 55 58 62 64 67 72 77 81 83 84 82 82 80 75 68
24 11 9 23 13 27 12 27 11 12 9 11 7 12 15 24 21 20 23 28 24 18 17 17 21 25 29 34 42 49 56 60 65 68 71 74 77 79 82 85 84 80 70 62
7 13 27 32 7 4 12 18 3 10 13 6 7 10 8 18 21 45 37 33 26 24 18 14 12 6 7 15 26 32 36 40 47 56 63 68 74 78 76 75 68 64 65 66
16 6 19 7 9 6 24 18 27 8 7 12 11 10 4 14 22 45 49 36 28 18 10 9 9 5 4 1 4 10 17 24 29 33 38 43 51 61 69 71 70 74 74 69
19 10 15 40 71 20 41 40 29 9 7 9 21 10 7 12 20 27 39 32 22 11 2 5 4 6 5 3 3 5 7 10 15 19 23 27 31 36 44 51 58 64 68 68
10 10 8 15 27 17 40 41 16 30 11 18 9 17 16 22 21 42 47 33 25 17 9 9 5 7 6 4 5 7 9 12 15 18 20 22 25 29 32 34 38 42 44 44
6 10 10 7 17 28 30 40 36 32 22 14 11 16 9 25 35 34 46 42 26 18 16 9 10 8 10 10 9 13 13 14 17 19 21 23 26 28 30 33 36 39 41 44
13 13 9 10 9 20 2 51 54 49 51 54 22 32 16 15 19 42 52 44 31 22 22 17 17 13 12 14 18 19 17 20 20 22 23 22 23 24 25 27 29 29 30 31
19 15 7 9 17 9 15 40 58 60 55 50 45 18 21 26 59 49 50 48 35 30 28 24 19 21 24 26 26 24 25 25 25 25 22 21 21 21 21 19 18 18 16 12
22 6 8 16 26 5 9 16 52 40 48 33 41 20 27 30 12 34 41 43 45 42 29 28 28 30 29 27 28 29 29 28 29 26 23 21 22 21 19 17 14 15 15 17
13 8 11 7 14 31 8 14 51 15 24 45 55 40 33 19 11 27 47 55 55 42 36 28 27 23 23 27 27 31 32 31 29 25 25 26 23 20 17 16 17 18 19 18
19 15 25 21 7 15 13 27 65 25 32 44 71 70 64 32 63 49 42 50 40 30 26 23 21 20 21 22 23 27 31 30 28 29 27 24 20 18 17 17 18 18 20 22
17 20 15 5 1 33 26 53 54 26 13 32 64 84 88 80 57 44 48 37 32 27 22 22 20 16 15 17 18 21 24 26 25 26 23 20 18 17 17 17 18 19 21 22
7 20 21 27 18 6 70 62 54 60 42 29 48 65 82 81 66 64 53 42 34 26 25 22 17 14 11 10 11 13 17 18 21 21 20 19 18 17 18 17 18 19 20 21
9 23 8 7 13 9 52 43 63 33 38 38 39 57 62 75 68 58 51 42 37 34 28 22 18 14 12 13 13 13 14 16 16 16 17 17 15 14 14 14 15 16 17 18
10 23 14 8 5 9 56 51 78 49 39 43 46 49 46 47 54 53 52 46 40 33 28 24 22 23 22 21 19 19 18 17 16 16 16 16 16 14 14 14 14 13 13 14
13 24 30 25 25 23 42 90 90 64 53 53 55 45 40 40 54 54 52 46 41 38 36 35 33 31 32 30 27 26 25 22 18 15 15 13 11 9 8 7 5 7 9 11
Wind_Direction_850mb
177 186 187 190 178 227 164 182 182 216 209 165 216 217 237 253 267 240 214 219 216 222 231 228 227 224 223 226 227 229 228 225 222 223 225 228 229 232 232 232 235 238 241 240
157 210 204 191 179 180 178 194 209 342 120 165 254 258 236 230 243 246 235 228 232 233 222 219 220 222 225 228 227 231 234 233 226 227 229 233 236 238 243 244 242 242 244 245
193 200 176 177 177 176 176 208 193 218 165 261 16 279 224 230 232 238 240 238 236 229 231 216 216 221 226 227 230 232 235 236 232 230 230 232 235 240 241 243 244 245 246 249
210 194 168 187 185 189 187 191 258 149 135 207 153 272 291 224 234 221 229 228 232 229 230 222 220 221 229 233 236 235 236 238 239 236 233 233 235 236 241 245 249 249 249 250
198 176 176 186 194 185 192 139 346 156 154 66 244 157 266 263 274 233 225 229 232 233 232 226 225 226 233 238 239 237 234 236 240 241 240 239 239 244 247 250 252 252 251 250
199 186 175 185 184 177 151 128 94 351 97 248 202 164 256 230 220 236 236 230 234 237 238 236 232 232 234 238 242 240 236 237 238 240 241 241 242 245 247 249 250 252 253 252
154 163 165 169 149 168 138 141 114 174 219 224 129 196 243 246 239 194 167 190 235 244 248 245 235 235 236 236 240 243 240 239 240 240 242 245 247 248 251 254 255 253 254 253
157 175 166 184 171 176 169 166 151 168 197 200 339 226 244 223 239 252 211 202 204 213 219 236 238 237 239 240 240 243 243 242 242 241 242 246 249 250 253 255 255 256 257 258
154 163 144 165 151 157 188 193 154 99 27 92 214 283 306 245 235 201 202 219 237 233 231 234 231 231 232 234 240 246 247 244 245 243 244 245 249 251 253 257 259 259 259 260
187 95 178 145 103 301 190 161 127 29 138 199 256 269 226 214 205 212 186 188 200 205 228 222 222 228 232 230 233 238 241 245 248 248 247 248 249 252 255 258 258 260 261 261
138 114 167 150 210 178 146 195 180 125 150 158 155 252 211 204 179 188 184 172 177 190 196 206 220 228 232 234 235 238 239 240 240 241 242 245 247 248 251 255 258 261 263 258
198 122 156 188 160 262 185 209 169 170 203 189 147 267 303 185 161 156 165 152 140 129 126 125 122 142 215 233 238 242 241 241 243 244 245 246 247 249 249 251 252 252 250 250
177 129 129 156 348 341 198 225 198 102 98 201 133 247 10 130 138 160 154 156 148 134 101 163 157 91 68 191 241 248 255 258 260 261 259 252 247 246 248 250 249 245 248 247
114 143 180 188 193 146 189 200 207 146 159 154 213 167 176 166 152 161 163 163 170 165 104 139 213 258 266 264 330 323 299 276 262 257 254 254 252 248 246 245 245 246 248 253
111 137 126 185 170 149 177 187 183 211 190 198 164 179 211 190 177 181 178 181 183 190 190 189 358 336 272 300 296 311 314 299 282 272 267 263 262 260 259 257 254 252 251 245
295 151 113 14 166 154 176 189 194 208 216 249 150 220 208 211 195 191 199 204 201 196 198 216 289 279 290 268 311 303 298 297 281 273 270 270 268 268 265 261 258 257 256 254
159 138 121 171 127 103 22 192 196 207 212 213 188 212 196 207 198 196 204 201 205 216 227 254 282 275 287 281 289 295 279 279 277 263 258 258 261 264 264 263 259 253 247 242
162 141 107 153 130 174 235 188 204 205 212 214 224 166 190 201 214 217 208 212 212 223 235 258 266 277 284 278 270 270 268 268 265 260 256 260 262 261 259 258 259 260 255 246
212 102 77 158 192 268 256 194 193 191 230 223 223 195 186 171 174 245 221 226 237 243 244 260 271 273 272 265 255 247 247 252 253 249 244 247 252 253 254 252 242 228 224 222
136 125 144 137 171 211 183 193 190 115 255 218 212 205 199 171 226 234 229 232 232 236 248 247 254 247 258 259 253 244 241 243 244 239 236 236 239 246 250 239 229 227 229 233
146 155 182 187 193 275 242 156 138 150 243 193 193 196 201 207 224 236 207 205 208 205 215 217 220 237 247 248 241 236 236 237 233 230 230 232 236 241 242 235 222 226 231 237
160 152 180 105 214 250 170 149 171 189 139 169 191 197 203 208 203 188 179 182 182 184 199 220 223 228 236 240 240 236 232 227 225 223 225 226 228 234 241 238 227 226 232 237
170 191 170 191 210 245 174 169 186 181 183 170 192 198 204 199 196 187 183 185 188 198 197 182 181 186 188 204 215 219 219 214 208 208 211 215 219 222 225 231 234 232 234 240
238 201 193 108 216 206 179 186 197 183 195 182 180 180 189 193 193 184 184 191 194 187 181 180 183 184 185 185 180 185 186 186 188 193 197 202 206 211 219 224 234 231 229 238
197 163 177 272 213 139 196 193 193 191 192 163 151 151 158 165 169 178 179 181 179 175 171 169 170 164 161 156 154 158 157 155 164 175 184 190 196 199 202 205 213 219 227 237
193 191 196 228 158 198 188 194 197 195 178 169 165 164 168 173 171 174 172 171 176 173 168 164 157 155 147 143 145 140 137 136 141 151 162 167 174 182 191 197 208 236 253 259